Location: Eindhoven
(51.4416°N, 5.4697°E)
Time: 04:34:06
(UTC+01:00)

Tiros 1 - Pass Details

Date: 25 November 2019
Orbit: 630 x 664 km, 48.4° (Epoch: 14 December)

Event Time Altitude Azimuth Distance (km) Brightness Sun altitude
Rises 18:53:40 0° 276° (W) 2,922 11.9 -20.5°
Reaches altitude 10° 18:57:06 10° 249° (WSW) 2,014 10.8 -21.0°
Maximum altitude 18:59:17 13° 221° (SW) 1,801 10.0 -21.4°
Drops below altitude 10° 19:01:30 10° 192° (SSW) 2,016 9.9 -21.7°
Sets 19:04:56 0° 166° (SSE) 2,927 10.4 -22.2°
